Location: *
(45.9500°N, 9.0833°E)
Time: 13:56:55
(UTC+00:00)

ATLAS CENTAUR R/B - Pass Details

Date: 03 March 2021
Orbit: 475 x 670 km, 64.7° (Epoch: 30 March)

Event Time Altitude Azimuth Distance (km) Brightness Sun altitude
Rises 18:18:18 0° 203° (SSW) 2,522 5.0 -12.1°
Reaches altitude 10° 18:20:27 10° 199° (SSW) 1,640 3.9 -12.5°
Maximum altitude 18:24:00 53° 122° (ESE) 592 1.1 -13.1°
Enters shadow 18:27:02 14° 47° (NE) 1,444 3.1 -13.6°
